Terug naar catalogus

BREEZE-M DEB

ActiefHEO
NORAD 39326·DEBRIS·🇷🇺 Russia

Gelanceerd Mar 14, 2008 vanaf Baikonur Cosmodrome

Loading…

Volgende Passages (komende 24 uur)

TLE

VerouderendSource: Space-Track

Epoch: Aug 25, 2026, 00:15 UTC

1 39326U 08011DD  26237.01109235 -.00000058  00000-0  00000-0 0  9998
2 39326  48.1054 198.1150 5814466 135.2299 289.9675  2.89425561  3323

Volg BREEZE-M DEB in realtime met AllMySat

Download on the App Store